Weather History for Minot, ND

Change the Weather History Date:

Monday, January 27, 2014

  Actual Average Record
Temperature  
Mean Temperature -10 °F 13 °F  
Max Temperature -6 °F 22 °F 55 °F (1906)
Min Temperature -15 °F 4 °F -40 °F (1920)
Degree Days  
Heating Degree Days 75 52  
Month to date heating degree days 1402 1427  
Since 1 July heating degree days 5342 5022  
Moisture  
Dew Point -20 °F    
Average Humidity 65    
Maximum Humidity 70    
Minimum Humidity 59    
Precipitation  
Precipitation 0.00 in 0.01 in 0.16 in (1962)
Month to date precipitation 0.19 0.45  
Year to date precipitation 0.19 0.45  
Sea Level Pressure  
Sea Level Pressure 30.53 in    
Wind  
Wind Speed 17 mph (WNW)    
Max Wind Speed 24 mph    
Max Gust Speed 30 mph    
Visibility 10 miles    
Events Snow    
T = Trace of Precipitation, MM = Missing Value Source: NWS Daily Summary

Daily Weather History Graph

Daily Weather History Graph

Search for Another Location

Airport:

Trip Planner

Search our weather history database for the weather conditions in past years. The results will help you decide how hot, cold, wet, or windy it might be!

Date:

Astronomy

Jan. 27, 2014 Rise Set
Actual Time 8:19 AM CST 5:36 PM CST
Civil Twilight 7:45 AM CST 6:10 PM CST
Nautical Twilight 7:07 AM CST 6:48 PM CST
Astronomical Twilight 6:31 AM CST 7:25 PM CST
Moon 5:06 AM CST (1/27) 2:20 PM CST (1/27)
Length of Visible Light 10h 25m
Length of Day
9h 17m
Waning Crescent, 14% of the Moon is Illuminated
Jan 27
Waning Crescent
Jan 30
New
Feb 6
First Quarter
Feb 14
Full
Feb 22
Last Quarter

Hourly Weather History & Observations

Time (CST) Temp. Windchill Dew Point Humidity Pressure Visibility Wind Dir Wind Speed Gust Speed Precip Events Conditions
12:25 AM -13.0 °F -40.6 °F -20.9 °F 68% 30.33 in 10.0 mi WNW 23.0 mph - N/A Snow Blowing Snow
12:54 AM -13.0 °F -39.4 °F -20.9 °F 68% 30.50 in 10.0 mi WNW 20.7 mph - N/A Snow Blowing Snow
1:54 AM -14.1 °F -38.9 °F -22.0 °F 68% 30.51 in 10.0 mi WNW 17.3 mph - N/A Snow Blowing Snow
2:54 AM -14.1 °F -37.4 °F -22.0 °F 68% 30.52 in 10.0 mi WNW 15.0 mph - N/A Snow Blowing Snow
3:54 AM -14.1 °F -38.2 °F -22.0 °F 68% 30.53 in 10.0 mi West 16.1 mph - N/A Snow Blowing Snow
4:54 AM -14.1 °F -38.2 °F -22.0 °F 68% 30.53 in 10.0 mi West 16.1 mph - N/A Snow Blowing Snow
5:54 AM -15.0 °F -38.5 °F -23.1 °F 67% 30.54 in 10.0 mi West 15.0 mph - N/A Snow Blowing Snow
6:54 AM -15.0 °F -33.7 °F -23.1 °F 67% 30.53 in 10.0 mi West 9.2 mph - N/A Snow Blowing Snow
7:54 AM -15.0 °F -33.7 °F -23.1 °F 67% 30.54 in 10.0 mi West 9.2 mph - N/A Snow Blowing Snow
8:54 AM -15.0 °F -35.9 °F -23.1 °F 67% 30.54 in 10.0 mi West 11.5 mph - N/A Snow Blowing Snow
9:54 AM -13.0 °F -38.8 °F -20.9 °F 68% 30.56 in 10.0 mi West 19.6 mph - N/A Snow Blowing Snow
10:54 AM -11.0 °F -36.2 °F -20.0 °F 64% 30.58 in 10.0 mi West 19.6 mph - N/A Snow Blowing Snow
11:54 AM -9.0 °F -34.2 °F -18.0 °F 65% 30.56 in 10.0 mi West 20.7 mph - N/A Snow Blowing Snow
12:54 PM -8.0 °F -32.2 °F -17.0 °F 65% 30.55 in 10.0 mi WNW 19.6 mph - N/A Snow Blowing Snow
1:54 PM -6.0 °F -27.7 °F -16.1 °F 62% 30.54 in 10.0 mi WNW 16.1 mph - N/A Snow Blowing Snow
2:54 PM -6.0 °F -30.2 °F -16.1 °F 62% 30.52 in 10.0 mi WNW 20.7 mph - N/A Snow Blowing Snow
3:54 PM -6.0 °F -27.7 °F -16.1 °F 62% 30.52 in 10.0 mi WNW 16.1 mph - N/A Snow Blowing Snow
4:54 PM -7.1 °F -30.4 °F -16.1 °F 65% 30.53 in 10.0 mi WNW 18.4 mph - N/A   Clear
5:54 PM -8.0 °F -31.0 °F -17.0 °F 65% 30.53 in 10.0 mi WNW 17.3 mph - N/A   Clear
6:54 PM -9.0 °F -31.7 °F -18.0 °F 65% 30.54 in 10.0 mi West 16.1 mph - N/A   Clear
7:54 PM -9.9 °F -32.1 °F -18.0 °F 68% 30.54 in 10.0 mi WNW 15.0 mph - N/A   Clear
8:54 PM -11.0 °F -36.2 °F -18.9 °F 68% 30.54 in 10.0 mi West 19.6 mph - N/A   Clear
9:54 PM -11.9 °F -36.1 °F -20.0 °F 67% 30.53 in 10.0 mi West 17.3 mph - N/A   Clear
10:54 PM -11.9 °F -37.4 °F -20.0 °F 67% 30.52 in 10.0 mi West 19.6 mph - N/A   Clear
11:54 PM -11.9 °F -36.8 °F -20.0 °F 67% 30.50 in 10.0 mi West 18.4 mph - N/A   Clear